Location: *
(45.1961°N, 1.9694°E)
Time: 02:17:16
(UTC+00:00)

Cosmos 1536 - Pass Details

Date: 25 August 2019
Orbit: 540 x 559 km, 82.5° (Epoch: 16 September)

Event Time Altitude Azimuth Distance (km) Brightness Sun altitude
Exits shadow 19:23:35 - 140° (SE) 2,093 5.2 -7.6°
Reaches altitude 10° 19:24:23 10° 133° (SE) 1,845 4.9 -7.7°
Maximum altitude 19:27:17 19° 87° (E) 1,353 4.3 -8.2°
Drops below altitude 10° 19:30:13 10° 41° (NE) 1,853 5.3 -8.7°
Sets 19:32:51 0° 24° (NNE) 2,752 6.4 -9.1°
